Location: Proctor
(47.8934°N, 114.3048°W)
Time: 10:19:23
(UTC+00:00)

Transit 4A - Pass Details

Date: 26 June 2024
Orbit: 870 x 973 km, 66.8° (Epoch: 13 July)

Event Time Altitude Azimuth Distance (km) Brightness Sun altitude
Rises 09:05:38 0° 302° (WNW) 3,465 11.0 -16.2°
Reaches altitude 10° 09:10:01 10° 333° (NNW) 2,535 10.8 -16.0°
Maximum altitude 09:12:11 12° 355° (N) 2,401 11.0 -15.8°
Drops below altitude 10° 09:14:21 10° 17° (NNE) 2,550 11.6 -15.7°
Sets 09:18:49 0° 48° (NE) 3,510 12.2 -15.4°
